Location: Huntsville
(41.2590°N, 111.7678°W)
Time: 21:07:36
(UTC+00:00)

Vanguard 3 - Pass Details

Date: 22 June 2021
Orbit: 508 x 3261 km, 33.4° (Epoch: 28 July)

Event Time Altitude Azimuth Distance (km) Brightness Sun altitude
Rises 13:54:25 0° 232° (SW) 2,758 9.4 19.8°
Reaches altitude 10° 13:57:11 10° 213° (SSW) 1,741 8.5 20.3°
Maximum altitude 13:59:55 19° 166° (SSE) 1,245 8.3 20.8°
Drops below altitude 10° 14:02:40 10° 118° (ESE) 1,773 9.8 21.3°
Sets 14:05:32 0° 100° (E) 2,828 11.1 21.8°
